Home   Weather   Fairfield   Past weeks
Flag for Barbados

Past Weather in Fairfield, Barbados — Yesterday and Last 2 Weeks

Now
86 °F

Scattered clouds.


Feels Like: 92 °F
Forecast: 85 / 79 °F
Wind: 22 mph from East

Location: Grantley Adams

Current Time: Dec 9, 2019 at 2:30:50 pm

Latest Report: Dec 9, 2019 at 12:00 pm


Visibility: N/A

Pressure: 29.95 "Hg

Humidity: 62%

Dew Point: 72 °F

Location of FairfieldLocation

Past Weather in Fairfield — Graph

°F

Fairfield Temperature Yesterday

Maximum temperature yesterday: 88 °F (at 10:00 am)
Minimum temperature yesterday: 79 °F (at 12:00 am)
Average temperature yesterday: 82 °F

High & Low Weather Summary for the Past Weeks

 TemperatureHumidityPressure
High90 °F (Nov 27, 1:00 pm)94% (Nov 29, 11:00 pm)30.01 "Hg (Nov 29, 11:00 pm)
Low75 °F (Nov 29, 3:00 am)52% (Dec 8, 12:00 pm)29.80 "Hg (Nov 25, 4:00 pm)
Average83 °F74%29.90 "Hg
* Reported Nov 24 12:00 pm — Dec 9 12:00 pm, Fairfield. Weather by CustomWeather, © 2019

Note: Actual official high and low records may vary slightly from our data, if they occured in-between our weather recording intervals... More about our weather records

Fairfield Weather History for the Previous 24 Hours

Scroll right to see more
 ConditionsComfort  
Time TempWeatherWind HumidityBarometerVisibility
12:00 pm
Mon, Dec 9
86 °FScattered clouds.22 mph62%29.95 "HgN/A
11:00 am86 °FScattered clouds.22 mph62%29.95 "HgN/A
10:00 am82 °FSprinkles. Partly sunny.14 mph79%29.98 "HgN/A
9:00 am81 °FRain showers. Partly sunny.16 mph84%29.98 "HgN/A
8:00 am84 °FScattered showers. Scattered clouds.21 mph62%29.95 "HgN/A
7:00 am81 °FPassing clouds.16 mph74%29.95 "HgN/A
6:00 am79 °FPassing clouds.20 mph79%29.92 "HgN/A
5:00 am79 °FPassing clouds.16 mph79%29.92 "HgN/A
4:00 am81 °FPassing clouds.18 mph70%29.89 "HgN/A
3:00 am79 °FPassing clouds.15 mph74%29.89 "HgN/A
2:00 am81 °FPassing clouds.20 mph66%29.92 "HgN/A
1:00 am81 °FPassing clouds.21 mph70%29.92 "HgN/A
12:00 am81 °FPassing clouds.22 mph74%29.95 "HgN/A
11:00 pm
Sun, Dec 8
81 °FPassing clouds.21 mph74%29.95 "HgN/A
10:00 pm81 °FPassing clouds.23 mph74%29.95 "HgN/A
9:00 pm81 °FPassing clouds.16 mph74%29.95 "HgN/A
8:00 pm81 °FPassing clouds.15 mph70%29.95 "HgN/A
7:00 pm81 °FPassing clouds.16 mph70%29.92 "HgN/A
6:00 pm81 °FPassing clouds.16 mph70%29.92 "HgN/A
5:00 pm82 °FScattered clouds.17 mph62%29.89 "HgN/A
4:00 pm84 °FScattered clouds.16 mph58%29.89 "HgN/A
3:00 pm86 °FScattered clouds.17 mph55%29.86 "HgN/A
Weather by CustomWeather, © 2019

See weather overview

Advertising